Location: Unnamed
(48.6007°N, 2.4808°E)
Time: 18:30:59
(UTC+01:00)

X-37B - Visible Passes

Search period start: 08 December 2022 00:00
Search period end: 18 December 2022 00:00
Orbit: 277 x 277 km, 45.0° (Epoch: 01 November)

Date Brightness Start Highest point End Pass type
(mag) Time Alt. Az. Time Alt. Az. Time Alt. Az.
08 Dec 2.6 18:32:26 10° S 18:33:21 12° SSE 18:33:21 12° SSE visible
09 Dec 2.1 18:32:13 10° SSW 18:33:55 17° SSE 18:34:03 17° SSE visible
10 Dec 1.7 18:32:27 10° SW 18:34:27 22° SSE 18:34:42 22° SSE visible
11 Dec 1.3 18:32:51 10° SW 18:35:02 28° S 18:35:21 27° SSE visible
12 Dec 1.1 18:33:22 10° WSW 18:35:38 32° S 18:36:00 31° SSE visible
13 Dec 1.1 18:33:57 10° WSW 18:36:14 34° S 18:36:40 31° SSE visible
14 Dec 1.2 18:34:35 10° WSW 18:36:51 33° S 18:37:22 29° SSE visible
15 Dec 1.6 18:35:15 10° WSW 18:37:27 28° S 18:38:09 24° SSE visible
16 Dec 2.1 18:35:59 10° WSW 18:38:01 22° SSW 18:39:02 17° SSE visible
17 Dec 2.7 18:36:51 10° WSW 18:38:34 17° SSW 18:40:03 11° SSE visible
